Regional Weather Roundup
Issued by NWS

Home | Current Version | Previous Version | Graphics & Text | Print | Product List | Glossary On
Versions: 1 2 3 4 5 6 7 8 9 10 11 12 13 14 15 16 17 18 19 20 21 22 23 24 25 26 27 28 29 30 31 32 33 34 35 36 37 38 39 40 41 42 43 44 45 46 47 48 49 50
000
ASUS43 KIND 101909
RWRIN

WEATHER ROUNDUP FOR INDIANA
NATIONAL WEATHER SERVICE INDIANAPOLIS IN
300 PM EDT THU JUL 10 2014

NOTE: "FAIR" INDICATES FEW OR NO CLOUDS BELOW 12,000 FEET WITH NO
SIGNIFICANT WEATHER AND/OR OBSTRUCTIONS TO VISIBILITY.

* - STATION DOES NOT REPORT WEATHER SUCH AS PRECIPITATION OR FOG.

+ - STATION NOT QUALITY CONTROLLED BY THE NATIONAL WEATHER SERVICE.
    USE DATA WITH CAUTION...ESPECIALLY DEWPOINT AND RELATIVE
    HUMIDITY OBSERVATIONS.

INZ001>003-010>013-019-020-102000-
NORTHWEST INDIANA

CITY           SKY/WX    TMP DP  RH WIND       PRES   REMARKS
GARY /AIRPORT/ MOSUNNY   75  57  53 NE10      30.19F
KNOX *+        MOSUNNY   75  53  46 NE9       30.18S
LA PORTE +     SUNNY     73  50  44 N12       30.20S
MICHIGAN CITY+ SUNNY     72  46  40 N7        30.20S
MONTICELLO +   MOSUNNY   76  56  50 N6        30.17S
RENSSELAER +   MOSUNNY   73  54  49 CALM      30.17F
VALPARAISO     SUNNY     75  51  43 N8        30.19F

$$

LMZ046-743>745-102000-
SOUTHERN LAKE MICHIGAN

STATION/POSITION TIME  TEMP WIND        PRES
                       AIR  DIR/SP/G
                 (UTC) (F)  (DEG/KT/KT) (MB)
MICHIGAN CITY    1900   68   20/  8/  9   N/A

$$

INZ004-005-014>016-021>024-102000-
NORTH CENTRAL INDIANA

CITY           SKY/WX    TMP DP  RH WIND       PRES   REMARKS
GOSHEN         MOSUNNY   74  51  44 MISG      30.18F
LOGANSPORT +   PTSUNNY   75  50  41 N5        30.18F
PERU/GRISSOM   SUNNY     76  54  46 NW8G17    30.17F
ROCHESTER +    SUNNY     79  50  36 N7        30.18F
SOUTH BEND     MOSUNNY   76  51  41 NW7       30.19F
WARSAW +       MOSUNNY   72  52  49 N6        30.18F

$$

INZ006>009-017-018-025>027-102000-
NORTHEAST INDIANA

CITY           SKY/WX    TMP DP  RH WIND       PRES   REMARKS
ANGOLA *+      PTSUNNY   73  54  49 VRB3      30.18F
AUBURN +       PTSUNNY   72  46  40 NW7       30.19S
FORT WAYNE     MOSUNNY   76  53  44 VRB5G17   30.17F
HUNTINGTON +   MOSUNNY   75  53  46 N5        30.17S

$$

INZ028-029-035-036-043>045-051>053-102000-
WEST CENTRAL INDIANA

CITY           SKY/WX    TMP DP  RH WIND       PRES   REMARKS
GREENCASTLE +  MOSUNNY   77  55  47 N7        30.16F
LAFAYETTE      SUNNY     78  52  40 N6        30.16F
TERRE HAUTE    MOSUNNY   79  57  46 NE8       30.14F

$$

INZ030>032-037>040-046>048-054>057-064-065-102000-
CENTRAL INDIANA

CITY           SKY/WX    TMP DP  RH WIND       PRES   REMARKS
ANDERSON       MOSUNNY   75  48  38 N6        30.19
CP ATTERBURY + MOSUNNY   81  55  41 N8        30.15S
FRANKFORT +    MOSUNNY   77  55  47 N12       30.18F
INDIANAPOLIS   PTSUNNY   75  53  46 N9        30.15F
-EAGLE CREEK   SUNNY     77  52  41 NW8       30.15F
KOKOMO *+      MOSUNNY   75  52  43 NE8       30.17F
MARION +       SUNNY     75  50  41 NW6       30.18F
MT COMFORT *+  SUNNY     77  55  47 N9        30.16F
SHELBYVILLE    PTSUNNY   79  58  48 N6        30.14F
ZIONSVILLE +   SUNNY     76  50  39 N7        30.17F

$$

INZ033-034-041-042-049-050-058-059-102000-
EAST CENTRAL INDIANA

CITY           SKY/WX    TMP DP  RH WIND       PRES   REMARKS
MUNCIE         SUNNY     77  52  41 N9        30.16F

$$

INZ060-061-067>069-081>083-085>088-102000-
SOUTHWEST INDIANA

CITY           SKY/WX    TMP DP  RH WIND       PRES   REMARKS
EVANSVILLE     MOSUNNY   83  57  41 E6        30.11F
HUNTINGBURG *+ MOSUNNY   82  59  44 N5        30.12F
WASHINGTON +   MOSUNNY   81  60  49 N5        30.12F

$$

INZ062-063-066-070>080-084-089>092-102000-
SOUTH CENTRAL AND SOUTHEAST INDIANA

CITY           SKY/WX    TMP DP  RH WIND       PRES   REMARKS
BLOOMINGTON    MOSUNNY   81  57  43 N8        30.14F
NORTH VERNON + MOSUNNY   79  59  50 NE9       30.14

$$




USA.gov is the U.S. government's official web portal to all federal, state and local government web resources and services.